Year,Month,Day,Hour,Minute,Value (Times are PST for temperature in C)
2018,05,12,00,00,12.00
2018,05,12,00,01,12.00
2018,05,12,00,02,12.10
2018,05,12,00,03,12.10
2018,05,12,00,04,12.10
2018,05,12,00,05,12.10
2018,05,12,00,06,12.10
2018,05,12,00,07,12.10
2018,05,12,00,08,12.10
2018,05,12,00,09,12.00
2018,05,12,00,10,12.00
2018,05,12,00,11,11.90
2018,05,12,00,12,11.90
2018,05,12,00,13,11.80
2018,05,12,00,14,11.80
2018,05,12,00,15,11.70
2018,05,12,00,16,11.70
2018,05,12,00,17,11.60
2018,05,12,00,18,11.60
2018,05,12,00,19,11.60
2018,05,12,00,20,11.50
2018,05,12,00,21,11.50
2018,05,12,00,22,11.40
2018,05,12,00,23,11.40
2018,05,12,00,24,11.30
2018,05,12,00,25,11.30
2018,05,12,00,26,11.30
2018,05,12,00,27,11.30
2018,05,12,00,28,11.30
2018,05,12,00,29,11.30
2018,05,12,00,30,11.30
2018,05,12,00,31,11.30
2018,05,12,00,32,11.30
2018,05,12,00,33,11.30
2018,05,12,00,34,11.40
2018,05,12,00,35,11.60
2018,05,12,00,36,11.70
2018,05,12,00,37,11.70
2018,05,12,00,38,11.80
2018,05,12,00,39,11.90
2018,05,12,00,40,12.00
2018,05,12,00,41,12.00
2018,05,12,00,42,12.10
2018,05,12,00,43,12.10
2018,05,12,00,44,12.00
2018,05,12,00,45,11.90
2018,05,12,00,46,11.80
2018,05,12,00,47,11.80
2018,05,12,00,48,11.70
2018,05,12,00,49,11.70
2018,05,12,00,50,11.60
2018,05,12,00,51,11.60
2018,05,12,00,52,11.50
2018,05,12,00,53,11.50
2018,05,12,00,54,11.40
2018,05,12,00,55,11.40
2018,05,12,00,56,11.40
2018,05,12,00,57,11.40
2018,05,12,00,58,11.30
2018,05,12,00,59,11.30
2018,05,12,01,00,11.30
2018,05,12,01,01,11.30
2018,05,12,01,02,11.30
2018,05,12,01,03,11.30
2018,05,12,01,04,11.20
2018,05,12,01,05,11.20
2018,05,12,01,06,11.20
2018,05,12,01,07,11.20
2018,05,12,01,08,11.20
2018,05,12,01,09,11.20
2018,05,12,01,10,11.20
2018,05,12,01,11,11.20
2018,05,12,01,12,11.20
2018,05,12,01,13,11.30
2018,05,12,01,14,11.30
2018,05,12,01,15,11.40
2018,05,12,01,16,11.50
2018,05,12,01,17,11.60
2018,05,12,01,18,11.60
2018,05,12,01,19,11.70
2018,05,12,01,20,11.80
2018,05,12,01,21,11.80
2018,05,12,01,22,11.80
2018,05,12,01,23,11.90
2018,05,12,01,24,11.90
2018,05,12,01,25,11.90
2018,05,12,01,26,12.00
2018,05,12,01,27,12.00
2018,05,12,01,28,12.00
2018,05,12,01,29,12.00
2018,05,12,01,30,12.10
2018,05,12,01,31,12.10
2018,05,12,01,32,12.10
2018,05,12,01,33,12.10
2018,05,12,01,34,12.10
2018,05,12,01,35,12.10
2018,05,12,01,36,12.10
2018,05,12,01,37,12.00
2018,05,12,01,38,12.00
2018,05,12,01,39,12.00
2018,05,12,01,40,12.00
2018,05,12,01,41,12.00
2018,05,12,01,42,12.00
2018,05,12,01,43,12.00
2018,05,12,01,44,12.00
2018,05,12,01,45,11.90
2018,05,12,01,46,11.90
2018,05,12,01,47,11.90
2018,05,12,01,48,11.90
2018,05,12,01,49,11.90
2018,05,12,01,50,11.90
2018,05,12,01,51,11.90
2018,05,12,01,52,11.90
2018,05,12,01,53,11.90
2018,05,12,01,54,11.90
2018,05,12,01,55,11.90
2018,05,12,01,56,11.90
2018,05,12,01,57,11.90
2018,05,12,01,58,11.80
2018,05,12,01,59,11.80
2018,05,12,02,00,11.80
2018,05,12,02,01,11.80
2018,05,12,02,02,11.80
2018,05,12,02,03,11.80
2018,05,12,02,04,11.80
2018,05,12,02,05,11.80
2018,05,12,02,06,11.80
2018,05,12,02,07,11.80
2018,05,12,02,08,11.80
2018,05,12,02,09,11.80
2018,05,12,02,10,11.80
2018,05,12,02,11,11.70
2018,05,12,02,12,11.70
2018,05,12,02,13,11.70
2018,05,12,02,14,11.70
2018,05,12,02,15,11.70
2018,05,12,02,16,11.70
2018,05,12,02,17,11.70
2018,05,12,02,18,11.60
2018,05,12,02,19,11.60
2018,05,12,02,20,11.60
2018,05,12,02,21,11.60
2018,05,12,02,22,11.60
2018,05,12,02,23,11.60
2018,05,12,02,24,11.60
2018,05,12,02,25,11.60
2018,05,12,02,26,11.60
2018,05,12,02,27,11.60
2018,05,12,02,28,11.60
2018,05,12,02,29,11.50
2018,05,12,02,30,11.50
2018,05,12,02,31,11.50
2018,05,12,02,32,11.50
2018,05,12,02,33,11.50
2018,05,12,02,34,11.50
2018,05,12,02,35,11.50
2018,05,12,02,36,11.40
2018,05,12,02,37,11.40
2018,05,12,02,38,11.40
2018,05,12,02,39,11.40
2018,05,12,02,40,11.40
2018,05,12,02,41,11.40
2018,05,12,02,42,11.30
2018,05,12,02,43,11.30
2018,05,12,02,44,11.30
2018,05,12,02,45,11.30
2018,05,12,02,46,11.30
2018,05,12,02,47,11.30
2018,05,12,02,48,11.30
2018,05,12,02,49,11.20
2018,05,12,02,50,11.20
2018,05,12,02,51,11.20
2018,05,12,02,52,11.20
2018,05,12,02,53,11.20
2018,05,12,02,54,11.20
2018,05,12,02,55,11.20
2018,05,12,02,56,11.20
2018,05,12,02,57,11.10
2018,05,12,02,58,11.10
2018,05,12,02,59,11.10
2018,05,12,03,00,11.10
2018,05,12,03,01,11.00
2018,05,12,03,02,11.00
2018,05,12,03,03,11.00
2018,05,12,03,04,10.90
2018,05,12,03,05,10.90
2018,05,12,03,06,10.90
2018,05,12,03,07,10.90
2018,05,12,03,08,10.90
2018,05,12,03,09,10.90
2018,05,12,03,10,10.90
2018,05,12,03,11,10.90
2018,05,12,03,12,10.90
2018,05,12,03,13,10.90
2018,05,12,03,14,10.90
2018,05,12,03,15,10.80
2018,05,12,03,16,10.80
2018,05,12,03,17,10.80
2018,05,12,03,18,10.80
2018,05,12,03,19,10.80
2018,05,12,03,20,10.80
2018,05,12,03,21,10.80
2018,05,12,03,22,10.80
2018,05,12,03,23,10.80
2018,05,12,03,24,10.80
2018,05,12,03,25,10.80
2018,05,12,03,26,10.80
2018,05,12,03,27,10.80
2018,05,12,03,28,10.80
2018,05,12,03,29,10.70
2018,05,12,03,30,10.70
2018,05,12,03,31,10.70
2018,05,12,03,32,10.70
2018,05,12,03,33,10.70
2018,05,12,03,34,10.70
2018,05,12,03,35,10.70
2018,05,12,03,36,10.70
2018,05,12,03,37,10.70
2018,05,12,03,38,10.80
2018,05,12,03,39,10.80
2018,05,12,03,40,10.80
2018,05,12,03,41,10.80
2018,05,12,03,42,10.80
2018,05,12,03,43,10.80
2018,05,12,03,44,10.80
2018,05,12,03,45,10.80
2018,05,12,03,46,10.80
2018,05,12,03,47,10.80
2018,05,12,03,48,10.80
2018,05,12,03,49,10.70
2018,05,12,03,50,10.70
2018,05,12,03,51,10.70
2018,05,12,03,52,10.70
2018,05,12,03,53,10.70
2018,05,12,03,54,10.70
2018,05,12,03,55,10.70
2018,05,12,03,56,10.70
2018,05,12,03,57,10.70
2018,05,12,03,58,10.70
2018,05,12,03,59,10.70
2018,05,12,04,00,10.70
2018,05,12,04,01,10.70
2018,05,12,04,02,10.70
2018,05,12,04,03,10.70
2018,05,12,04,04,10.70
2018,05,12,04,05,10.60
2018,05,12,04,06,10.60
2018,05,12,04,07,10.60
2018,05,12,04,08,10.60
2018,05,12,04,09,10.60
2018,05,12,04,10,10.60
2018,05,12,04,11,10.60
2018,05,12,04,12,10.60
2018,05,12,04,13,10.60
2018,05,12,04,14,10.60
2018,05,12,04,15,10.60
2018,05,12,04,16,10.60
2018,05,12,04,17,10.60
2018,05,12,04,18,10.60
2018,05,12,04,19,10.60
2018,05,12,04,20,10.60
2018,05,12,04,21,10.50
2018,05,12,04,22,10.50
2018,05,12,04,23,10.40
2018,05,12,04,24,10.40
2018,05,12,04,25,10.40
2018,05,12,04,26,10.40
2018,05,12,04,27,10.40
2018,05,12,04,28,10.40
2018,05,12,04,29,10.40
2018,05,12,04,30,10.40
2018,05,12,04,31,10.40
2018,05,12,04,32,10.40
2018,05,12,04,33,10.40
2018,05,12,04,34,10.40
2018,05,12,04,35,10.40
2018,05,12,04,36,10.40
2018,05,12,04,37,10.40
2018,05,12,04,38,10.40
2018,05,12,04,39,10.40
2018,05,12,04,40,10.40
2018,05,12,04,41,10.40
2018,05,12,04,42,10.40
2018,05,12,04,43,10.40
2018,05,12,04,44,10.40
2018,05,12,04,45,10.40
2018,05,12,04,46,10.40
2018,05,12,04,47,10.40
2018,05,12,04,48,10.40
2018,05,12,04,49,10.30
2018,05,12,04,50,10.30
2018,05,12,04,51,10.30
2018,05,12,04,52,10.30
2018,05,12,04,53,10.40
2018,05,12,04,54,10.40
2018,05,12,04,55,10.40
2018,05,12,04,56,10.40
2018,05,12,04,57,10.40
2018,05,12,04,58,10.40
2018,05,12,04,59,10.50
2018,05,12,05,00,10.50
2018,05,12,05,01,10.50
2018,05,12,05,02,10.50
2018,05,12,05,03,10.50
2018,05,12,05,04,10.50
2018,05,12,05,05,10.50
2018,05,12,05,06,10.50
2018,05,12,05,07,10.50
2018,05,12,05,08,10.50
2018,05,12,05,09,10.50
2018,05,12,05,10,10.40
2018,05,12,05,11,10.40
2018,05,12,05,12,10.40
2018,05,12,05,13,10.40
2018,05,12,05,14,10.40
2018,05,12,05,15,10.40
2018,05,12,05,16,10.40
2018,05,12,05,17,10.40
2018,05,12,05,18,10.40
2018,05,12,05,19,10.40
2018,05,12,05,20,10.40
2018,05,12,05,21,10.40
2018,05,12,05,22,10.40
2018,05,12,05,23,10.40
2018,05,12,05,24,10.40
2018,05,12,05,25,10.40
2018,05,12,05,26,10.30
2018,05,12,05,27,10.30
2018,05,12,05,28,10.30
2018,05,12,05,29,10.30
2018,05,12,05,30,10.30
2018,05,12,05,31,10.30
2018,05,12,05,32,10.30
2018,05,12,05,33,10.30
2018,05,12,05,34,10.30
2018,05,12,05,35,10.30
2018,05,12,05,36,10.30
2018,05,12,05,37,10.30
2018,05,12,05,38,10.40
2018,05,12,05,39,10.40
2018,05,12,05,40,10.40
2018,05,12,05,41,10.40
2018,05,12,05,42,10.40
2018,05,12,05,43,10.40
2018,05,12,05,44,10.40
2018,05,12,05,45,10.40
2018,05,12,05,46,10.40
2018,05,12,05,47,10.40
2018,05,12,05,48,10.40
2018,05,12,05,49,10.50
2018,05,12,05,50,10.50
2018,05,12,05,51,10.50
2018,05,12,05,52,10.50
2018,05,12,05,53,10.50
2018,05,12,05,54,10.60
2018,05,12,05,55,10.50
2018,05,12,05,56,10.60
2018,05,12,05,57,10.60
2018,05,12,05,58,10.50
2018,05,12,05,59,10.60
2018,05,12,06,00,10.60
2018,05,12,06,01,10.60
2018,05,12,06,02,10.60
2018,05,12,06,03,10.60
2018,05,12,06,04,10.60
2018,05,12,06,05,10.60
2018,05,12,06,06,10.60
2018,05,12,06,07,10.60
2018,05,12,06,08,10.60
2018,05,12,06,09,10.60
2018,05,12,06,10,10.60
2018,05,12,06,11,10.60
2018,05,12,06,12,10.60
2018,05,12,06,13,10.60
2018,05,12,06,14,10.60
2018,05,12,06,15,10.60
2018,05,12,06,16,10.50
2018,05,12,06,17,10.50
2018,05,12,06,18,10.50
2018,05,12,06,19,10.40
2018,05,12,06,20,10.40
2018,05,12,06,21,10.40
2018,05,12,06,22,10.40
2018,05,12,06,23,10.40
2018,05,12,06,24,10.40
2018,05,12,06,25,10.40
2018,05,12,06,26,10.40
2018,05,12,06,27,10.40
2018,05,12,06,28,10.40
2018,05,12,06,29,10.40
2018,05,12,06,30,10.40
2018,05,12,06,31,10.40
2018,05,12,06,32,10.30
2018,05,12,06,33,10.30
2018,05,12,06,34,10.30
2018,05,12,06,35,10.20
2018,05,12,06,36,10.20
2018,05,12,06,37,10.20
2018,05,12,06,38,10.20
2018,05,12,06,39,10.20
2018,05,12,06,40,10.20
2018,05,12,06,41,10.10
2018,05,12,06,42,10.10
2018,05,12,06,43,10.10
2018,05,12,06,44,10.10
2018,05,12,06,45,10.10
2018,05,12,06,46,10.10
2018,05,12,06,47,10.10
2018,05,12,06,48,10.10
2018,05,12,06,49,10.10
2018,05,12,06,50,10.10
2018,05,12,06,51,10.10
2018,05,12,06,52,10.10
2018,05,12,06,53,10.20
2018,05,12,06,54,10.20
2018,05,12,06,55,10.20
2018,05,12,06,56,10.20
2018,05,12,06,57,10.20
2018,05,12,06,58,10.20
2018,05,12,06,59,10.20
2018,05,12,07,00,10.10
2018,05,12,07,01,10.10
2018,05,12,07,02,10.10
2018,05,12,07,03,10.10
2018,05,12,07,04,10.10
2018,05,12,07,05,10.20
2018,05,12,07,06,10.20
2018,05,12,07,07,10.20
2018,05,12,07,08,10.20
2018,05,12,07,09,10.20
2018,05,12,07,10,10.20
2018,05,12,07,11,10.20
2018,05,12,07,12,10.20
2018,05,12,07,13,10.20
2018,05,12,07,14,10.20
2018,05,12,07,15,10.10
2018,05,12,07,16,10.10
2018,05,12,07,17,10.10
2018,05,12,07,18,10.10
2018,05,12,07,19,10.10
2018,05,12,07,20,10.10
2018,05,12,07,21,10.10
2018,05,12,07,22,10.10
2018,05,12,07,23,10.10
2018,05,12,07,24,10.10
2018,05,12,07,25,10.10
2018,05,12,07,26,10.00
2018,05,12,07,27,10.00
2018,05,12,07,28,10.00
2018,05,12,07,29,10.00
2018,05,12,07,30,10.00
2018,05,12,07,31,10.00
2018,05,12,07,32,10.00
2018,05,12,07,33,10.00
2018,05,12,07,34,10.00
2018,05,12,07,35,10.00
2018,05,12,07,36,10.10
2018,05,12,07,37,10.10
2018,05,12,07,38,10.10
2018,05,12,07,39,10.10
2018,05,12,07,40,10.20
2018,05,12,07,41,10.20
2018,05,12,07,42,10.20
2018,05,12,07,43,10.20
2018,05,12,07,44,10.20
2018,05,12,07,45,10.20
2018,05,12,07,46,10.20
2018,05,12,07,47,10.30
2018,05,12,07,48,10.30
2018,05,12,07,49,10.20
2018,05,12,07,50,10.20
2018,05,12,07,51,10.30
2018,05,12,07,52,10.30
2018,05,12,07,53,10.30
2018,05,12,07,54,10.30
2018,05,12,07,55,10.30
2018,05,12,07,56,10.40
2018,05,12,07,57,10.40
2018,05,12,07,58,10.40
2018,05,12,07,59,10.50
2018,05,12,08,00,10.50
2018,05,12,08,01,10.50
2018,05,12,08,02,10.60
2018,05,12,08,03,10.60
2018,05,12,08,04,10.60
2018,05,12,08,05,10.70
2018,05,12,08,06,10.70
2018,05,12,08,07,10.80
2018,05,12,08,08,10.80
2018,05,12,08,09,10.80
2018,05,12,08,10,10.70
2018,05,12,08,11,10.70
2018,05,12,08,12,10.70
2018,05,12,08,13,10.70
2018,05,12,08,14,10.70
2018,05,12,08,15,10.60
2018,05,12,08,16,10.60
2018,05,12,08,17,10.60
2018,05,12,08,18,10.60
2018,05,12,08,19,10.70
2018,05,12,08,20,10.70
2018,05,12,08,21,10.70
2018,05,12,08,22,10.70
2018,05,12,08,23,10.70
2018,05,12,08,24,10.80
2018,05,12,08,25,10.80
2018,05,12,08,26,10.80
2018,05,12,08,27,10.80
2018,05,12,08,28,10.80
2018,05,12,08,29,10.80
2018,05,12,08,30,10.90
2018,05,12,08,31,10.90
2018,05,12,08,32,10.90
2018,05,12,08,33,10.90
2018,05,12,08,34,10.90
2018,05,12,08,35,10.80
2018,05,12,08,36,10.80
2018,05,12,08,37,10.80
2018,05,12,08,38,10.90
2018,05,12,08,39,10.90
2018,05,12,08,40,10.90
2018,05,12,08,41,11.00
2018,05,12,08,42,11.00
2018,05,12,08,43,11.00
2018,05,12,08,44,11.10
2018,05,12,08,45,11.10
2018,05,12,08,46,11.20
2018,05,12,08,47,11.20
2018,05,12,08,48,11.30
2018,05,12,08,49,11.40
2018,05,12,08,50,11.40
2018,05,12,08,51,11.50
2018,05,12,08,52,11.60
2018,05,12,08,53,11.60
2018,05,12,08,54,11.70
2018,05,12,08,55,11.80
2018,05,12,08,56,11.80
2018,05,12,08,57,11.90
2018,05,12,08,58,11.90
2018,05,12,08,59,12.00
2018,05,12,09,00,12.00
2018,05,12,09,01,12.00
2018,05,12,09,02,12.10
2018,05,12,09,03,12.10
2018,05,12,09,04,12.10
2018,05,12,09,05,12.10
2018,05,12,09,06,12.10
2018,05,12,09,07,12.00
2018,05,12,09,08,12.00
2018,05,12,09,09,12.00
2018,05,12,09,10,12.00
2018,05,12,09,11,12.00
2018,05,12,09,12,12.10
2018,05,12,09,13,12.20
2018,05,12,09,14,12.20
2018,05,12,09,15,12.30
2018,05,12,09,16,12.30
2018,05,12,09,17,12.40
2018,05,12,09,18,12.40
2018,05,12,09,19,12.40
2018,05,12,09,20,12.30
2018,05,12,09,21,12.30
2018,05,12,09,22,12.30
2018,05,12,09,23,12.30
2018,05,12,09,24,12.30
2018,05,12,09,25,12.30
2018,05,12,09,26,12.30
2018,05,12,09,27,12.50
2018,05,12,09,28,12.60
2018,05,12,09,29,12.60
2018,05,12,09,30,12.60
2018,05,12,09,31,12.60
2018,05,12,09,32,12.60
2018,05,12,09,33,12.60
2018,05,12,09,34,12.70
2018,05,12,09,35,12.70
2018,05,12,09,36,12.80
2018,05,12,09,37,12.90
2018,05,12,09,38,13.00
2018,05,12,09,39,13.10
2018,05,12,09,40,13.10
2018,05,12,09,41,13.10
2018,05,12,09,42,13.00
2018,05,12,09,43,12.90
2018,05,12,09,44,12.80
2018,05,12,09,45,12.70
2018,05,12,09,46,12.60
2018,05,12,09,47,12.60
2018,05,12,09,48,12.50
2018,05,12,09,49,12.40
2018,05,12,09,50,12.40
2018,05,12,09,51,12.50
2018,05,12,09,52,12.50
2018,05,12,09,53,12.50
2018,05,12,09,54,12.50
2018,05,12,09,55,12.50
2018,05,12,09,56,12.50
2018,05,12,09,57,12.50
2018,05,12,09,58,12.50
2018,05,12,09,59,12.30
2018,05,12,10,00,12.20
2018,05,12,10,01,12.10
2018,05,12,10,02,12.00
2018,05,12,10,03,11.90
2018,05,12,10,04,11.90
2018,05,12,10,05,11.80
2018,05,12,10,06,11.80
2018,05,12,10,07,11.80
2018,05,12,10,08,11.80
2018,05,12,10,09,11.70
2018,05,12,10,10,11.70
2018,05,12,10,11,11.60
2018,05,12,10,12,11.60
2018,05,12,10,13,11.60
2018,05,12,10,14,11.60
2018,05,12,10,15,11.60
2018,05,12,10,16,11.50
2018,05,12,10,17,11.40
2018,05,12,10,18,11.40
2018,05,12,10,19,11.40
2018,05,12,10,20,11.40
2018,05,12,10,21,11.40
2018,05,12,10,22,11.40
2018,05,12,10,23,11.50
2018,05,12,10,24,11.50
2018,05,12,10,25,11.60
2018,05,12,10,26,11.60
2018,05,12,10,27,11.70
2018,05,12,10,28,11.60
2018,05,12,10,29,11.60
2018,05,12,10,30,11.60
2018,05,12,10,31,11.60
2018,05,12,10,32,11.60
2018,05,12,10,33,11.70
2018,05,12,10,34,11.70
2018,05,12,10,35,11.70
2018,05,12,10,36,11.70
2018,05,12,10,37,11.70
2018,05,12,10,38,11.70
2018,05,12,10,39,11.70
2018,05,12,10,40,11.80
2018,05,12,10,41,11.80
2018,05,12,10,42,11.70
2018,05,12,10,43,11.70
2018,05,12,10,44,11.70
2018,05,12,10,45,11.70
2018,05,12,10,46,11.70
2018,05,12,10,47,11.60
2018,05,12,10,48,11.60
2018,05,12,10,49,11.60
2018,05,12,10,50,11.60
2018,05,12,10,51,11.70
2018,05,12,10,52,11.70
2018,05,12,10,53,11.70
2018,05,12,10,54,11.70
2018,05,12,10,55,11.70
2018,05,12,10,56,11.70
2018,05,12,10,57,11.70
2018,05,12,10,58,11.70
2018,05,12,10,59,11.70
2018,05,12,11,00,11.70
2018,05,12,11,01,11.80
2018,05,12,11,02,11.90
2018,05,12,11,03,12.10
2018,05,12,11,04,12.10
2018,05,12,11,05,12.20
2018,05,12,11,06,12.30
2018,05,12,11,07,12.30
2018,05,12,11,08,12.40
2018,05,12,11,09,12.50
2018,05,12,11,10,12.50
2018,05,12,11,11,12.60
2018,05,12,11,12,12.70
2018,05,12,11,13,12.70
2018,05,12,11,14,12.70
2018,05,12,11,15,12.70
2018,05,12,11,16,12.80
2018,05,12,11,17,12.80
2018,05,12,11,18,12.80
2018,05,12,11,19,12.90
2018,05,12,11,20,12.90
2018,05,12,11,21,12.90
2018,05,12,11,22,12.90
2018,05,12,11,23,12.90
2018,05,12,11,24,12.90
2018,05,12,11,25,12.90
2018,05,12,11,26,12.90
2018,05,12,11,27,12.80
2018,05,12,11,28,12.80
2018,05,12,11,29,12.80
2018,05,12,11,30,12.80
2018,05,12,11,31,12.80
2018,05,12,11,32,12.80
2018,05,12,11,33,12.80
2018,05,12,11,34,12.80
2018,05,12,11,35,12.80
2018,05,12,11,36,12.80
2018,05,12,11,37,12.80
2018,05,12,11,38,12.80
2018,05,12,11,39,12.80
2018,05,12,11,40,12.80
2018,05,12,11,41,12.90
2018,05,12,11,42,12.90
2018,05,12,11,43,12.90
2018,05,12,11,44,13.00
2018,05,12,11,45,13.00
2018,05,12,11,46,13.00
2018,05,12,11,47,13.10
2018,05,12,11,48,13.20
2018,05,12,11,49,13.20
2018,05,12,11,50,13.20
2018,05,12,11,51,13.20
2018,05,12,11,52,13.20
2018,05,12,11,53,13.20
2018,05,12,11,54,13.20
2018,05,12,11,55,13.10
2018,05,12,11,56,13.00
2018,05,12,11,57,13.00
2018,05,12,11,58,13.00
2018,05,12,11,59,13.00
2018,05,12,12,00,13.00
2018,05,12,12,01,13.00
2018,05,12,12,02,13.10
2018,05,12,12,03,13.10
2018,05,12,12,04,13.10
2018,05,12,12,05,13.10
2018,05,12,12,06,13.10
2018,05,12,12,07,13.00
2018,05,12,12,08,13.00
2018,05,12,12,09,13.00
2018,05,12,12,10,13.10
2018,05,12,12,11,13.10
2018,05,12,12,12,13.20
2018,05,12,12,13,13.30
2018,05,12,12,14,13.30
2018,05,12,12,15,13.40
2018,05,12,12,16,13.50
2018,05,12,12,17,13.50
2018,05,12,12,18,13.60
2018,05,12,12,19,13.60
2018,05,12,12,20,13.60
2018,05,12,12,21,13.50
2018,05,12,12,22,13.50
2018,05,12,12,23,13.50
2018,05,12,12,24,13.60
2018,05,12,12,25,13.60
2018,05,12,12,26,13.60
2018,05,12,12,27,13.70
2018,05,12,12,28,13.70
2018,05,12,12,29,13.70
2018,05,12,12,30,13.70
2018,05,12,12,31,13.80
2018,05,12,12,32,13.80
2018,05,12,12,33,13.90
2018,05,12,12,34,14.00
2018,05,12,12,35,14.10
2018,05,12,12,36,14.10
2018,05,12,12,37,14.20
2018,05,12,12,38,14.30
2018,05,12,12,39,14.40
2018,05,12,12,40,14.50
2018,05,12,12,41,14.60
2018,05,12,12,42,14.70
2018,05,12,12,43,14.70
2018,05,12,12,44,14.80
2018,05,12,12,45,14.90
2018,05,12,12,46,15.00
2018,05,12,12,47,15.20
2018,05,12,12,48,15.30
2018,05,12,12,49,15.40
2018,05,12,12,50,15.50
2018,05,12,12,51,15.60
2018,05,12,12,52,15.60
2018,05,12,12,53,15.70
2018,05,12,12,54,15.70
2018,05,12,12,55,15.70
2018,05,12,12,56,15.60
2018,05,12,12,57,15.60
2018,05,12,12,58,15.60
2018,05,12,12,59,15.70
2018,05,12,13,00,15.70
2018,05,12,13,01,15.80
2018,05,12,13,02,15.80
2018,05,12,13,03,15.80
2018,05,12,13,04,15.70
2018,05,12,13,05,15.70
2018,05,12,13,06,15.60
2018,05,12,13,07,15.60
2018,05,12,13,08,15.60
2018,05,12,13,09,15.60
2018,05,12,13,10,15.60
2018,05,12,13,11,15.70
2018,05,12,13,12,15.80
2018,05,12,13,13,15.80
2018,05,12,13,14,15.90
2018,05,12,13,15,16.00
2018,05,12,13,16,16.20
2018,05,12,13,17,16.30
2018,05,12,13,18,16.40
2018,05,12,13,19,16.40
2018,05,12,13,20,16.50
2018,05,12,13,21,16.50
2018,05,12,13,22,16.50
2018,05,12,13,23,16.40
2018,05,12,13,24,16.50
2018,05,12,13,25,16.50
2018,05,12,13,26,16.60
2018,05,12,13,27,16.70
2018,05,12,13,28,16.70
2018,05,12,13,29,16.80
2018,05,12,13,30,16.90
2018,05,12,13,31,17.00
2018,05,12,13,32,17.00
2018,05,12,13,33,17.10
2018,05,12,13,34,17.10
2018,05,12,13,35,17.20
2018,05,12,13,36,17.30
2018,05,12,13,37,17.40
2018,05,12,13,38,17.50
2018,05,12,13,39,17.50
2018,05,12,13,40,17.60
2018,05,12,13,41,17.60
2018,05,12,13,42,17.60
2018,05,12,13,43,17.60
2018,05,12,13,44,17.70
2018,05,12,13,45,17.70
2018,05,12,13,46,17.70
2018,05,12,13,47,17.70
2018,05,12,13,48,17.60
2018,05,12,13,49,17.60
2018,05,12,13,50,17.60
2018,05,12,13,51,17.60
2018,05,12,13,52,17.70
2018,05,12,13,53,17.80
2018,05,12,13,54,17.90
2018,05,12,13,55,17.90
2018,05,12,13,56,17.90
2018,05,12,13,57,17.90
2018,05,12,13,58,17.80
2018,05,12,13,59,17.70
2018,05,12,14,00,17.60
2018,05,12,14,01,17.70
2018,05,12,14,02,17.70
2018,05,12,14,03,17.70
2018,05,12,14,04,17.70
2018,05,12,14,05,17.70
2018,05,12,14,06,17.70
2018,05,12,14,07,17.70
2018,05,12,14,08,17.80
2018,05,12,14,09,17.80
2018,05,12,14,10,17.80
2018,05,12,14,11,17.80
2018,05,12,14,12,17.80
2018,05,12,14,13,17.80
2018,05,12,14,14,17.60
2018,05,12,14,15,17.50
2018,05,12,14,16,17.50
2018,05,12,14,17,17.50
2018,05,12,14,18,17.50
2018,05,12,14,19,17.50
2018,05,12,14,20,17.60
2018,05,12,14,21,17.60
2018,05,12,14,22,17.60
2018,05,12,14,23,17.70
2018,05,12,14,24,17.70
2018,05,12,14,25,17.70
2018,05,12,14,26,17.70
2018,05,12,14,27,17.80
2018,05,12,14,28,17.70
2018,05,12,14,29,17.70
2018,05,12,14,30,17.70
2018,05,12,14,31,17.80
2018,05,12,14,32,17.80
2018,05,12,14,33,17.90
2018,05,12,14,34,17.80
2018,05,12,14,35,17.80
2018,05,12,14,36,17.80
2018,05,12,14,37,17.70
2018,05,12,14,38,17.60
2018,05,12,14,39,17.50
2018,05,12,14,40,17.40
2018,05,12,14,41,17.50
2018,05,12,14,42,17.40
2018,05,12,14,43,17.50
2018,05,12,14,44,17.50
2018,05,12,14,45,17.50
2018,05,12,14,46,17.60
2018,05,12,14,47,17.60
2018,05,12,14,48,17.60
2018,05,12,14,49,17.60
2018,05,12,14,50,17.60
2018,05,12,14,51,17.60
2018,05,12,14,52,17.60
2018,05,12,14,53,17.60
2018,05,12,14,54,17.60
2018,05,12,14,55,17.60
2018,05,12,14,56,17.60
2018,05,12,14,57,17.60
2018,05,12,14,58,17.50
2018,05,12,14,59,17.40
2018,05,12,15,00,17.40
2018,05,12,15,01,17.50
2018,05,12,15,02,17.50
2018,05,12,15,03,17.60
2018,05,12,15,04,17.60
2018,05,12,15,05,17.60
2018,05,12,15,06,17.70
2018,05,12,15,07,17.70
2018,05,12,15,08,17.70
2018,05,12,15,09,17.80
2018,05,12,15,10,17.90
2018,05,12,15,11,17.90
2018,05,12,15,12,17.90
2018,05,12,15,13,17.90
2018,05,12,15,14,17.90
2018,05,12,15,15,17.80
2018,05,12,15,16,17.70
2018,05,12,15,17,17.70
2018,05,12,15,18,17.70
2018,05,12,15,19,17.80
2018,05,12,15,20,17.80
2018,05,12,15,21,17.90
2018,05,12,15,22,17.90
2018,05,12,15,23,17.90
2018,05,12,15,24,17.90
2018,05,12,15,25,18.00
2018,05,12,15,26,18.10
2018,05,12,15,27,18.10
2018,05,12,15,28,18.30
2018,05,12,15,29,18.30
2018,05,12,15,30,18.40
2018,05,12,15,31,18.50
2018,05,12,15,32,18.40
2018,05,12,15,33,18.40
2018,05,12,15,34,18.40
2018,05,12,15,35,18.30
2018,05,12,15,36,18.30
2018,05,12,15,37,18.20
2018,05,12,15,38,18.20
2018,05,12,15,39,18.10
2018,05,12,15,40,18.10
2018,05,12,15,41,17.90
2018,05,12,15,42,17.80
2018,05,12,15,43,17.80
2018,05,12,15,44,17.70
2018,05,12,15,45,17.70
2018,05,12,15,46,17.70
2018,05,12,15,47,17.70
2018,05,12,15,48,17.80
2018,05,12,15,49,17.80
2018,05,12,15,50,17.70
2018,05,12,15,51,17.70
2018,05,12,15,52,17.50
2018,05,12,15,53,17.50
2018,05,12,15,54,17.40
2018,05,12,15,55,17.40
2018,05,12,15,56,17.40
2018,05,12,15,57,17.40
2018,05,12,15,58,17.40
2018,05,12,15,59,17.30
2018,05,12,16,00,17.30
2018,05,12,16,01,17.30
2018,05,12,16,02,17.30
2018,05,12,16,03,17.30
2018,05,12,16,04,17.30
2018,05,12,16,05,17.40
2018,05,12,16,06,17.30
2018,05,12,16,07,17.30
2018,05,12,16,08,17.30
2018,05,12,16,09,17.40
2018,05,12,16,10,17.40
2018,05,12,16,11,17.40
2018,05,12,16,12,17.40
2018,05,12,16,13,17.30
2018,05,12,16,14,17.30
2018,05,12,16,15,17.30
2018,05,12,16,16,17.30
2018,05,12,16,17,17.40
2018,05,12,16,18,17.40
2018,05,12,16,19,17.50
2018,05,12,16,20,17.60
2018,05,12,16,21,17.60
2018,05,12,16,22,17.60
2018,05,12,16,23,17.70
2018,05,12,16,24,17.80
2018,05,12,16,25,17.80
2018,05,12,16,26,17.90
2018,05,12,16,27,17.90
2018,05,12,16,28,18.00
2018,05,12,16,29,18.10
2018,05,12,16,30,18.10
2018,05,12,16,31,18.20
2018,05,12,16,32,18.30
2018,05,12,16,33,18.40
2018,05,12,16,34,18.40
2018,05,12,16,35,18.40
2018,05,12,16,36,18.40
2018,05,12,16,37,18.50
2018,05,12,16,38,18.50
2018,05,12,16,39,18.40
2018,05,12,16,40,18.40
2018,05,12,16,41,18.40
2018,05,12,16,42,18.40
2018,05,12,16,43,18.40
2018,05,12,16,44,18.40
2018,05,12,16,45,18.40
2018,05,12,16,46,18.40
2018,05,12,16,47,18.40
2018,05,12,16,48,18.40
2018,05,12,16,49,18.30
2018,05,12,16,50,18.20
2018,05,12,16,51,18.10
2018,05,12,16,52,18.00
2018,05,12,16,53,18.00
2018,05,12,16,54,18.00
2018,05,12,16,55,18.00
2018,05,12,16,56,17.90
2018,05,12,16,57,17.90
2018,05,12,16,58,17.80
2018,05,12,16,59,17.80
2018,05,12,17,00,17.80
2018,05,12,17,01,17.80
2018,05,12,17,02,17.80
2018,05,12,17,03,17.70
2018,05,12,17,04,17.70
2018,05,12,17,05,17.70
2018,05,12,17,06,17.70
2018,05,12,17,07,17.70
2018,05,12,17,08,17.70
2018,05,12,17,09,17.80
2018,05,12,17,10,17.80
2018,05,12,17,11,17.80
2018,05,12,17,12,17.80
2018,05,12,17,13,17.80
2018,05,12,17,14,17.90
2018,05,12,17,15,17.90
2018,05,12,17,16,18.00
2018,05,12,17,17,17.90
2018,05,12,17,18,17.80
2018,05,12,17,19,17.80